Regional Weather Roundup
Issued by NWS

Home | Current Version | Previous Version | Graphics & Text | Print | Product List | Glossary On
Versions: 1 2 3 4 5 6 7 8 9 10 11 12 13 14 15 16 17 18 19 20 21 22 23 24 25 26 27 28 29 30 31 32 33 34 35 36 37 38 39 40 41 42 43 44 45 46 47 48 49 50
000
ASUS45 KTFX 260810
RWRMT
MONTANA REGIONAL WEATHER ROUNDUP
NATIONAL WEATHER SERVICE GREAT FALLS MT
200 AM MDT FRI MAY 26 2017

NOTE: "FAIR" INDICATES FEW OR NO CLOUDS BELOW 12000 FEET WITH NO
SIGNIFICANT WEATHER AND/OR OBSTRUCTIONS TO VISIBILITY.

MTZ001>007-043-260900-
WEST OF THE DIVIDE

CITY           SKY/WX    TMP DP  RH WIND       PRES   REMARKS
KALISPELL      PTCLDY    46  40  79 N10       29.90S
MISSOULA       MOCLDY    52  34  50 E8        29.89R
BUTTE          CLEAR     37  27  67 CALM      29.93S
MULLAN PASS    CLOUDY    40  33  76 N5        29.92R
ANACONDA         N/A     41  30  65 CALM      29.93R
DEER LODGE       N/A     41  32  70 CALM      29.94S
EUREKA           N/A     43  37  81 CALM      29.93R
HAMILTON         N/A     45  34  65 CALM      29.87R
PLAINS           N/A     46  38  74 CALM      29.90R
RONAN            N/A     49  39  68 N6        29.93R
THOMPSON FALLS   N/A     43  41  93 CALM      29.95R
$$

MTZ008-052>055-260900-
SOUTHWEST MONTANA

CITY           SKY/WX    TMP DP  RH WIND       PRES   REMARKS
BOZEMAN        PTCLDY    34  31  88 SE3       29.92R
DILLON         CLOUDY    45  29  53 NE13      29.90R
W YELLOWSTONE  CLOUDY    37  28  70 CALM      29.92S
ENNIS          CLOUDY    39  34  81 CALM      29.96R
THREE FORKS      N/A     35  31  86 CALM      29.92R
TWIN BRIDGES     N/A     45  27  49 N3        29.90S
$$

MTZ009-010-012-014-046-048-049-054-260900-
EAST SLOPES AND CENTRAL MONTANA

CITY           SKY/WX    TMP DP  RH WIND       PRES   REMARKS
CUT BANK       CLEAR     40  37  89 NW12      29.91R
GREAT FALLS    CLOUDY    41  37  86 NW6       29.92R
MALMSTROM AFB  CLOUDY    45  39  80 W7        29.92R
HELENA         CLOUDY    46  35  65 S3        29.92R
CHOTEAU          N/A     39  36  87 NW8       29.94R
CONRAD           N/A     43  43 100 W7        29.94S
$$

MTZ011-013-016-021-045-047-050-051-260900-
NORTH CENTRAL MONTANA

CITY           SKY/WX    TMP DP  RH WIND       PRES   REMARKS
HAVRE          PTCLDY    40  38  93 SW9       29.85R
LEWISTOWN      CLOUDY    39  36  89 W7        29.90R
N BAR RANCH      N/A     37  36  93 NW8       29.91S WCI  31
CHINOOK          N/A     45  39  81 W8        29.83R
FORT BENTON      N/A     43  37  81 CALM        N/A
$$

MTZ017>020-022>027-061-062-260900-
NORTHEAST MONTANA

CITY           SKY/WX    TMP DP  RH WIND       PRES   REMARKS
GLASGOW        CLEAR     42  36  79 W13       29.75S
JORDAN           N/A     37  33  85 SW6       29.82R
SIDNEY         MOCLDY    49  39  68 W15       29.70S
WOLF POINT     CLOUDY    49  39  68 W12       29.74R
MALTA          CLEAR     41  37  87 W10       29.80R
PLENTYWOOD       N/A     48  43  81 W17       29.64R
POPLAR           N/A     50  39  66 W10       29.72R
SCOBEY           N/A     48  31  52 W20       29.68
$$

MTZ028>42-056>058-260900-
SOUTHCENTRAL AND SOUTHEAST MONTANA

CITY           SKY/WX    TMP DP  RH WIND       PRES   REMARKS
BAKER          CLEAR     45  36  70 W13       29.79R
BILLINGS       CLEAR     43  33  68 SW12      29.88S
LIVINGSTON     CLOUDY    33  30  88 W8        29.92R WCI  26
MILES CITY     CLEAR     42  34  73 W10       29.82S
BIG TIMBER     CLEAR     36  32  87 CALM      29.94R
EKALAKA          N/A     42  35  76 W10       29.82
FORSYTH          N/A     48  36  61 SW5       29.84S
LAUREL           N/A     39  30  70 SW5       29.88F
ROUNDUP          N/A     50  34  54 W8        29.80S
$$

REGIONAL REPORTS...DAKOTAS

CITY           SKY/WX    TMP DP  RH WIND       PRES   REMARKS
WILLISTON      CLOUDY    51  42  71 W12       29.66R
MINOT          CLEAR     53  44  71 SW13      29.59R
DICKINSON      CLOUDY    49  38  65 W14       29.69S
BEACH          CLOUDY    48  39  71 W17G24    29.78R
CROSBY         CLOUDY    48  48 100 W17G24    29.60R
TIOGA          CLOUDY    48  48 100 W21       29.64R
WATFORD CITY   MOCLDY    48  43  81 W12       29.67R
BISMARCK       CLEAR     51  44  77 SW7       29.67R
GRAND FORKS    CLEAR     48  47  96 SW6       29.57R
FARGO          CLEAR     55  53  93 SW6       29.59R
BUFFALO SD       N/A     49  40  71 W15       29.73R
RAPID CITY     PTCLDY    43  34  70 W3        29.84R
$$

REGIONAL REPORTS...WYOMING/IDAHO/WASHINGTON

CITY           SKY/WX    TMP DP  RH WIND       PRES   REMARKS
GILLETTE       CLEAR     35  33  92 W8        29.90R WCI  29
SHERIDAN       CLOUDY    41  34  76 S3        29.90S
BUFFALO WY     CLOUDY    46  34  62 CALM      29.93R
CODY           CLOUDY    45  32  60 CALM      29.94S
YELLOWSTONE LA   N/A     33  28  81 CALM      29.94S
IDAHO FALLS    CLEAR     39  34  82 NW6       29.82S
SALMON         CLOUDY    46  39  76 E5        29.87R
BOISE          CLOUDY    52  42  69 W3        29.80R
SPOKANE        PTCLDY    49  40  71 SW5       29.87S
$$

REGIONAL REPORTS...ALBERTA

CITY           SKY/WX    TMP DP  RH WIND       PRES   REMARKS
EDMONTON       CLEAR     48  41  76 W7        29.77S
CALGARY        PTCLDY    43  34  70 CALM      29.88S
LETHBRIDGE     CLOUDY    45  39  81 W12       29.89R
MEDICINE HAT   CLOUDY    48  41  76 NW16G23   29.80R
WATERTON GATE    N/A     37  36  93 S9          N/A  WCI  31
CARDSTON         N/A     41  36  81 SW7         N/A
MILK RIVER       N/A     41  37  87 W12         N/A
$$

REGIONAL REPORTS...SASKATCHEWAN

CITY           SKY/WX    TMP DP  RH WIND       PRES   REMARKS
SWIFT CURRENT  CLOUDY    45  41  87 NW18G24   29.68R
REGINA         CLOUDY    48  45  87 W20G26    29.54R
SASKATOON      CLOUDY    48  45  87 NW18G25   29.59R
CYPRESS HILLS    N/A     41  37  87 W8          N/A
VAL MARIE        N/A     41  36  81 W14         N/A
ROCKGLEN         N/A     45  39  81 NW18G26     N/A
$$



USA.gov is the U.S. government's official web portal to all federal, state and local government web resources and services.